Location: STAR School
(35.3054°N, 111.2976°W)
Time: 02:17:20
(UTC-07:00)

OTV 5 (USA 277) - Visible Passes

Search period start: 11 December 2018 00:00
Search period end: 21 December 2018 00:00
Orbit: 340 x 348 km, 54.5° (Epoch: 10 December)

Date Brightness Start Highest point End Pass type
(mag) Time Alt. Az. Time Alt. Az. Time Alt. Az.
12 Dec ? 06:32:51 10° N 06:34:46 16° NE 06:36:40 10° E visible
13 Dec ? 06:55:46 10° NW 06:58:34 55° NE 07:01:22 10° SE visible
14 Dec ? 05:46:40 15° NNE 05:47:11 16° NE 05:49:01 10° ENE visible
15 Dec ? 06:09:48 28° NNW 06:11:00 51° NE 06:13:47 10° ESE visible
16 Dec ? 06:33:02 18° WNW 06:34:34 31° SW 06:37:07 10° SSE visible
17 Dec ? 05:24:53 23° ESE 05:24:53 23° ESE 05:26:11 10° ESE visible
18 Dec ? 05:48:16 21° S 05:48:16 21° S 05:49:35 10° SSE visible
